ASIASAT 9

Last updated on Wed Nov 05 2025 00:02:49 GMT+0000 (Coordinated Universal Time)

1 42942U 17057A 25308.61433446 -.00000347 00000+0 00000+0 0 9993 2 42942 0.0123 275.7803 0002891 298.1987 173.4214 1.00277592 29607
UTC large
Height (km)
Speed (km/s)
/
Latitude / Longitude
Inclination (degrees)
Orbital Period (minutes)
Azimuth
Elevation
Range (km)
Doppler Factor

Next 0 passes for location: London (51.5072 / 0.1276)

Sorry there are no passes over London.